SCP
0 0 0 1 1 1 1 1 1 2 3 4 4 6 8 9 9 8 8 9 10 10 8 6 5 4 5 6 8 9 9 8 6 5 5 4 3 3 3 3 4 4 5 6
0 0 0 1 1 1 1 1 1 2 4 4 5 7 8 8 8 8 8 8 9 9 8 7 5 5 5 7 9 9 9 9 7 5 5 4 3 3 3 3 3 4 5 5
0 0 0 0 1 1 1 2 3 3 4 5 6 7 8 8 8 8 8 8 8 8 8 7 5 5 6 7 8 9 9 9 7 6 5 4 3 3 3 3 3 3 3 3
0 0 0 0 0 1 3 4 4 4 5 6 7 7 7 7 7 8 9 9 8 8 8 8 6 6 7 7 7 8 8 7 6 5 5 4 3 3 3 3 3 3 2 2
0 0 0 0 1 2 3 4 4 5 6 7 6 6 6 6 5 6 7 8 8 8 8 8 7 6 7 7 6 6 6 6 6 5 5 4 4 3 3 3 3 3 3 2
0 0 1 1 1 2 3 3 4 5 6 6 5 5 4 4 3 4 5 6 7 6 6 7 6 5 6 6 6 5 5 5 6 5 4 4 4 4 4 4 3 3 3 2
1 1 2 3 2 2 2 3 3 4 4 4 4 4 4 3 4 4 5 6 6 5 5 5 5 5 5 5 5 4 4 4 5 4 4 3 3 3 3 3 3 3 3 3
1 2 2 2 2 2 2 2 3 4 4 4 4 5 6 5 6 7 7 7 7 6 6 6 6 5 5 4 4 3 3 3 4 4 3 3 3 3 3 3 2 2 3 3
2 2 1 1 1 1 1 2 3 4 5 5 6 8 9 9 9 9 8 9 9 9 9 8 7 7 8 6 4 4 4 4 4 4 3 3 4 4 3 2 2 3 3 3
2 2 1 1 1 1 2 2 3 5 5 5 6 8 9 10 10 10 9 10 10 10 9 9 9 10 10 7 4 4 4 4 4 4 4 3 3 3 3 2 2 3 3 3
2 2 2 1 1 2 2 2 3 4 5 4 5 6 7 7 8 9 9 9 9 8 7 8 10 9 6 4 3 3 3 4 4 4 4 3 2 2 2 2 2 2 2 3
2 1 1 1 1 1 2 2 2 3 4 4 4 5 6 7 9 10 9 8 7 5 5 6 7 5 2 2 2 2 2 3 3 3 3 2 1 1 1 1 1 1 1 2
1 1 1 1 1 1 1 1 1 2 2 3 4 6 8 9 10 9 8 6 5 4 4 4 3 2 2 1 2 2 2 2 3 3 2 2 1 1 0 0 0 0 0 0
0 1 1 1 1 1 1 1 1 1 1 2 4 7 9 9 8 7 6 5 4 4 3 3 3 2 2 2 2 2 2 3 2 2 2 1 1 1 0 0 0 0 0 0
0 0 1 1 1 1 1 2 2 2 3 4 5 6 7 7 6 5 5 4 4 3 3 3 3 2 2 2 3 3 3 2 2 2 1 1 1 0 0 0 0 0 0 0
0 0 0 0 0 1 1 2 2 3 4 5 5 5 4 4 4 3 4 3 3 3 3 3 2 2 2 2 2 2 2 2 2 1 1 1 1 0 0 0 0 0 0 0
0 0 0 0 0 0 1 1 2 3 4 5 4 3 2 2 2 2 2 2 3 4 4 3 2 1 1 1 1 1 1 1 1 1 1 1 1 0 0 0 0 0 0 0
0 0 0 0 0 1 1 2 3 3 4 4 3 3 2 1 1 1 1 1 2 4 4 3 2 1 1 1 1 1 1 1 1 1 1 1 1 1 1 0 0 0 0 0
1 1 1 1 1 2 3 4 3 3 3 3 3 3 3 2 1 1 1 1 2 3 4 4 3 2 1 1 1 1 1 1 1 1 1 1 1 1 1 1 1 0 0 0
1 1 1 1 2 3 4 4 3 3 3 3 3 3 3 3 2 1 1 1 1 2 2 3 3 2 1 1 0 0 0 1 1 1 1 1 1 2 1 1 1 1 0 0
1 1 1 2 3 4 4 3 2 2 2 3 3 3 3 2 2 1 1 1 1 1 2 2 3 3 2 1 0 0 0 1 1 1 1 1 1 2 2 1 1 1 1 1
1 1 2 3 4 4 4 3 2 1 2 2 2 2 2 2 1 1 1 1 1 1 1 3 3 3 2 1 0 0 0 0 0 0 1 1 1 1 1 1 1 1 1 1
1 1 2 3 4 5 5 4 3 2 2 2 2 1 1 1 1 1 1 1 1 1 2 3 3 2 1 1 1 0 0 0 0 0 0 1 1 1 1 1 1 1 1 1
1 1 2 4 6 7 7 6 4 3 2 2 1 1 1 1 0 0 1 1 1 1 1 2 1 1 1 1 1 1 0 0 0 0 0 0 0 0 0 0 0 1 1 1
1 1 2 5 7 8 7 5 3 2 1 1 0 0 0 0 0 0 1 1 1 1 1 1 1 0 1 1 1 1 1 0 0 1 0 0 0 0 0 0 0 0 1 1
1 1 3 5 6 6 4 3 1 1 0 0 0 0 0 0 0 0 1 2 2 1 2 1 1 1 2 2 2 1 1 1 1 1 1 1 0 0 0 0 0 0 0 0
1 2 3 4 4 3 2 1 1 0 0 0 0 0 0 0 0 1 2 2 2 2 2 1 1 2 2 2 2 2 1 1 1 1 1 1 1 0 0 0 0 0 0 0
Wind_Speed
4 4 1 1 2 1 3 7 7 7 7 7 7 8 7 6 6 7 7 7 8 7 7 7 6 6 6 5 5 5 5 5 4 4 4 3 3 3 3 3 3 3 3 3
2 3 2 2 3 1 2 3 5 6 4 5 4 4 5 6 7 8 8 8 7 7 7 6 6 6 5 5 5 5 5 5 4 4 3 3 3 3 3 2 2 2 2 3
2 4 4 3 3 1 1 1 5 5 6 5 4 4 6 6 6 7 7 8 8 7 7 7 6 5 5 5 5 5 4 4 4 3 3 3 3 3 3 2 2 2 2 2
1 3 1 6 3 1 3 2 3 4 5 7 6 4 3 5 6 6 7 7 7 6 6 5 5 5 5 5 5 5 4 3 3 4 3 3 3 2 2 2 3 3 3 3
3 2 3 4 3 1 2 1 1 5 6 6 7 6 2 2 5 6 7 6 6 5 5 5 5 5 6 4 4 4 4 3 4 4 4 3 3 3 2 2 2 2 2 2
4 3 3 5 6 3 4 1 1 4 6 7 7 4 4 3 4 5 5 5 5 5 5 6 5 6 6 5 4 5 5 5 4 4 4 4 3 3 2 2 2 2 2 2
3 2 4 5 7 3 3 5 3 2 5 6 4 6 6 4 4 4 5 6 6 6 4 4 5 6 5 4 5 4 4 4 3 3 3 3 3 2 2 1 1 1 1 2
2 2 5 6 4 1 4 2 2 2 2 3 3 4 4 5 5 5 5 5 6 5 5 4 5 6 5 4 3 3 3 3 3 3 3 2 2 2 1 1 1 1 1 1
5 5 5 2 1 2 2 3 2 2 1 3 4 5 5 4 5 5 5 5 5 5 5 4 4 6 5 3 3 3 3 3 2 2 2 2 2 2 2 1 1 1 1 1
1 3 2 1 1 2 3 2 2 3 3 4 5 5 4 4 4 4 4 5 5 6 5 4 3 4 4 3 3 3 3 2 2 2 1 1 1 2 2 2 2 2 2 2
1 2 2 3 1 1 2 3 3 3 3 3 4 5 5 4 4 4 3 3 4 5 5 4 3 3 2 3 3 3 2 1 1 1 2 1 1 1 2 2 3 4 3 3
4 5 3 3 3 1 3 2 3 4 3 3 4 5 5 5 3 3 3 3 4 4 4 3 3 3 2 2 3 3 2 1 1 1 1 1 1 1 2 1 2 3 4 4
5 4 3 3 0 2 3 3 4 4 4 4 4 5 6 4 3 4 4 4 4 4 4 3 3 2 1 1 2 2 2 2 1 1 1 1 1 1 1 2 2 2 3 4
2 3 2 0 0 2 4 5 6 5 5 5 5 5 6 5 4 3 2 2 3 4 3 3 3 1 1 2 2 2 2 1 1 1 1 1 1 2 2 2 2 2 2 3
0 2 3 2 2 3 4 6 7 6 5 4 4 5 5 4 4 3 2 2 3 3 3 3 2 1 1 2 2 2 1 1 1 1 1 1 1 1 1 2 2 2 1 2
2 2 3 3 4 4 5 6 5 4 4 4 4 3 3 3 4 3 2 3 3 2 2 2 2 2 1 1 2 1 1 2 1 1 1 1 1 1 1 1 2 1 2 2
4 2 3 3 3 3 4 4 5 4 4 4 3 3 2 2 3 2 1 2 3 2 2 3 2 2 1 1 1 1 1 1 2 1 2 2 2 2 2 2 2 2 3 3
4 4 5 6 6 5 4 4 4 4 3 3 3 2 2 2 2 1 1 1 1 1 1 2 3 2 1 1 1 1 1 2 2 2 2 2 2 2 2 2 2 2 2 2
3 4 4 5 5 5 4 4 3 3 3 3 3 2 1 1 2 1 1 1 2 2 3 2 2 2 1 2 2 1 2 2 2 1 1 2 2 2 2 2 2 3 2 2
3 4 5 5 4 5 5 4 3 2 2 3 3 2 1 1 1 1 1 1 2 3 3 3 2 2 2 2 2 1 1 2 2 2 2 2 2 3 2 3 3 3 2 2
3 4 4 4 3 3 3 4 4 3 2 2 2 2 2 1 1 1 2 1 4 3 2 3 2 2 2 2 2 2 2 2 2 2 2 2 2 2 2 2 3 2 2 2
3 3 3 3 3 3 2 2 2 3 2 1 1 1 1 1 1 1 1 2 3 2 2 2 2 2 2 2 2 2 2 2 1 1 2 2 1 1 1 2 2 2 2 2
2 2 1 2 3 2 1 1 2 2 2 1 1 1 1 1 1 2 2 2 1 2 2 2 2 3 3 2 1 1 1 1 1 1 1 2 2 2 2 2 1 1 2 2
1 0 1 1 2 3 2 1 1 1 1 1 1 1 1 1 1 1 2 2 2 1 1 2 3 3 2 1 1 1 1 1 1 1 1 1 1 1 1 1 1 1 1 2
1 1 1 2 2 2 2 1 1 1 1 0 1 1 1 1 2 2 1 1 1 1 0 1 2 1 1 0 0 0 1 1 1 1 1 0 1 1 1 1 1 1 1 2
0 1 1 2 2 2 2 1 1 0 0 0 1 1 1 0 0 0 0 1 1 1 0 0 1 1 1 1 1 1 1 1 1 1 1 1 0 0 0 0 1 1 1 2
1 1 1 1 1 1 2 2 1 1 1 1 1 1 1 0 0 0 0 0 1 1 1 1 1 1 1 1 1 1 1 1 1 1 1 1 1 1 1 1 1 1 1 1
Wind_Direction
213 229 244 304 302 250 177 181 176 198 193 216 195 177 173 169 158 143 143 148 152 157 166 169 169 170 168 170 169 167 163 168 182 181 175 170 167 175 176 179 187 191 190 199
321 330 358 353 334 301 246 189 164 152 210 227 177 152 153 156 149 147 152 150 152 156 159 163 165 163 158 159 162 157 156 165 167 168 169 169 174 176 173 181 187 179 190 200
267 316 28 325 289 230 262 198 158 180 208 167 152 164 167 162 155 157 155 151 155 161 164 162 161 154 152 157 148 147 153 158 161 158 166 179 180 172 185 193 184 189 201 200
141 56 221 248 279 99 99 46 110 146 162 158 155 149 144 159 161 159 156 156 158 155 149 152 146 141 141 139 140 144 146 156 166 162 167 169 162 173 201 193 191 202 212 215
120 155 259 294 305 305 129 16 83 131 127 125 115 81 42 172 163 160 158 155 153 150 143 138 143 153 140 137 141 150 160 176 179 172 168 163 172 191 200 190 202 215 216 215
123 141 221 262 299 289 95 45 329 120 132 137 118 118 230 200 153 146 138 141 140 138 132 139 153 150 138 151 167 184 191 189 181 172 168 174 191 203 200 186 207 219 228 225
131 167 247 282 310 21 115 226 237 146 145 136 152 184 192 165 148 148 140 142 139 140 141 152 152 138 139 156 183 194 181 173 170 172 184 186 190 195 187 199 213 232 238 256
111 133 254 303 6 71 223 218 137 121 136 126 142 133 129 128 129 126 125 126 133 137 138 141 139 136 143 166 184 171 159 157 170 181 190 177 171 188 193 192 212 248 259 288
176 205 242 271 215 242 132 108 113 111 95 121 118 114 116 122 128 127 132 134 136 133 129 131 141 144 151 170 157 150 148 156 173 177 183 172 169 184 198 192 193 234 234 244
143 266 280 315 38 54 76 84 88 110 111 108 113 117 125 129 125 122 132 136 130 126 131 142 148 144 153 155 146 138 149 170 172 169 196 204 195 188 189 200 208 222 227 233
189 263 342 341 3 52 53 72 76 86 105 106 119 125 128 128 126 124 124 129 134 134 143 151 141 134 139 136 128 130 144 155 176 190 195 196 229 236 215 219 212 209 225 218
208 217 184 238 273 48 76 72 85 83 65 89 105 117 114 118 118 117 115 118 119 124 126 132 130 129 130 132 134 139 144 156 180 187 176 171 170 346 357 295 284 250 238 227
191 192 183 217 208 71 84 92 91 92 100 103 88 101 105 103 100 97 97 114 126 124 124 128 127 131 157 146 133 142 163 179 186 182 179 186 190 185 263 330 343 325 280 251
173 125 92 52 133 80 91 94 86 77 84 98 101 108 110 104 101 96 107 140 137 127 123 125 124 140 199 151 141 145 160 187 184 199 206 208 212 214 205 218 270 297 304 273
181 148 162 145 101 88 89 93 88 81 79 79 94 107 108 112 121 129 125 119 116 118 121 123 123 178 225 146 137 154 171 195 192 192 206 207 213 215 219 227 238 257 287 309
134 120 117 113 118 117 107 101 98 95 92 83 81 88 106 116 116 115 115 121 124 140 159 153 170 220 206 142 134 159 206 218 205 189 200 207 222 224 233 231 237 241 242 246
136 146 126 125 133 127 125 129 128 124 111 103 108 113 114 100 94 97 108 133 152 175 186 178 195 210 171 157 159 187 220 241 237 218 219 219 217 221 223 219 218 232 244 235
152 163 163 155 145 133 124 117 115 111 118 116 108 107 120 123 131 150 184 143 117 113 212 208 197 186 182 185 185 199 216 231 226 218 220 219 218 217 216 218 225 232 251 247
106 138 135 123 124 122 118 115 116 117 117 116 119 133 150 158 159 170 168 139 158 208 247 231 198 184 210 230 216 214 221 233 246 239 222 226 227 229 225 224 231 237 241 238
92 117 121 113 109 113 122 129 125 118 124 131 130 130 136 193 181 163 150 199 226 220 220 215 197 202 214 229 235 224 225 237 236 236 230 221 226 232 231 230 232 235 239 234
92 87 102 111 107 106 118 129 131 127 123 127 140 170 193 215 223 177 152 246 269 241 204 199 205 221 225 232 230 231 232 234 232 234 233 230 230 235 238 235 233 229 227 228
89 97 98 112 111 103 101 111 127 131 127 139 186 186 176 193 211 252 234 231 247 220 186 199 218 228 229 229 219 225 228 226 222 223 223 219 218 226 243 241 234 228 219 215
106 115 121 140 135 131 101 98 126 137 143 164 190 192 213 224 188 176 257 267 240 205 205 220 233 238 242 233 230 231 217 210 214 211 209 208 204 207 222 230 226 215 208 213
105 121 191 153 108 100 90 87 114 127 137 143 159 178 178 185 275 251 223 222 215 203 238 242 242 245 243 218 221 234 217 200 184 181 203 239 243 235 227 221 219 213 200 185
167 175 136 113 104 117 145 139 94 87 90 58 313 291 242 198 203 237 236 212 196 151 331 250 227 221 218 220 209 198 183 189 199 189 179 215 257 274 276 266 239 193 177 179
194 165 151 145 150 149 144 129 119 206 194 254 311 318 322 300 192 187 216 220 198 157 147 250 241 204 220 217 204 192 185 183 171 167 189 208 222 243 256 258 242 192 190 196
86 96 98 78 98 142 145 144 154 203 199 185 233 277 279 282 136 186 205 195 190 192 211 237 230 205 217 220 215 191 179 182 168 166 175 181 183 198 214 219 216 198 182 181